Weather in Khebda

Russia / Republic of Dagestan     42°26′42″N   46°33′01″E
temp.,
°C
wind,
m/s
gust,
m/s
humid.,
%
clouds,
%
prec.,
mm/h
press.,
hPa
HPBL,
m
16 june, wed
wed1600:00+11ssw22710 0.0 101411
03:00+11ssw22670 0.0 101513
06:00+15ssw22690 0.0 101362
09:00+21e23480 0.0 1011806
12:00+23e34483 0.0 10101289
15:00+24e24435 0.0 10092032
18:00+21se22630 0.0 100979
21:00+14ssw43670 0.1 101336
17 june, thu
thu1700:00+12ssw43660 0.0 101241
03:00+12ssw43580 0.0 101140
06:00+14ssw34580 0.0 101065
09:00+22sw23320 0.0 1007819
12:00+25n13300 0.0 10072017
15:00+23ne33483 0.3 10081072
18:00+18ne227611 3.3 1013421
21:00+13wnw119478 4.1 101725
18 june, fri
fri1800:00+14nnw229695 0.3 1017117
03:00+12nw2299100 0.7 1018185
06:00+12nnw119687 0.1 1018185
09:00+15e2286100 0.7 1017524
12:00+18ene227354 1.4 1016855
15:00+18ene327747 3.8 1016703
18:00+14ene229586 2.2 1019239
21:00+13se119469 2.7 102150
19 june, sat
sat1900:00+11ssw11860 0.0 102111
03:00+10ssw22800 0.0 102011
06:00+14s22710 0.0 102064
09:00+20e22450 0.0 1017767
12:00+21ene33500 0.0 10171057
15:00+21ene33550 0.0 10161176
18:00+19e23710 0.0 1016389
21:00+14ssw32650 0.0 101924
20 june, sun
sun2000:00+13ssw33540 0.0 101928
03:00+12ssw33530 0.0 101926
06:00+14ssw33550 0.0 101845
09:00+22sse23300 0.0 1016861
12:00+25e24281 0.0 10141789
15:00+25e23360 0.0 10141528
18:00+22sse23570 0.0 101682
21:00+15ssw33550 0.0 102030